Terminal Aerodrome Forecast
Issued by NWS Sterling, VA

Home | Current Version | Previous Version | Text Only | Print | Product List | Glossary On
Versions: 1 2 3 4 5 6 7 8 9 10 11 12 13 14 15 16 17 18 19 20 21
350
FTUS41 KLWX 291125
TAFMRB
TAF
KMRB 291125Z 2912/3012 VRB03KT 3SM -RADZ BR OVC006
     FM291400 09004KT 3SM -DZ BR OVC008
     FM291700 10005KT P6SM OVC015
     FM300200 VRB03KT P6SM OVC010
     FM300400 VRB03KT 3SM -DZ BR OVC008=

USA.gov is the U.S. government's official web portal to all federal, state and local government web resources and services.